FW3090 Weather Reports


Display with metric or nautical units.
time (UTC)temp
F
wind
direction
speed
MPH
gust
MPH
rain 1hr
in
rain 24hr
in
rain mn
in
humidity
%
barometer
mb
20260906212406 79 172 2.0 6.0 0.00 0.00 0.00 71 1017.9
20260906211647 78 157 2.0 5.0 0.00 0.00 0.00 70 1018.0
20260906211403 79 160 2.0 5.0 0.00 0.00 0.00 70 1018.1
20260906210644 79 172 2.0 6.0 0.00 0.00 0.00 72 1018.1
20260906210406 79 167 3.0 7.0 0.00 0.00 0.00 71 1018.1
20260906205644 79 156 3.0 7.0 0.00 0.00 0.00 70 1018.4
20260906205144 79 171 2.0 9.0 0.00 0.00 0.00 69 1018.3
20260906205127 79 180 2.0 9.0 0.00 0.00 0.00 70 1018.3
20260906204143 79 65 2.0 7.0 0.00 0.00 0.00 70 1018.3
20260906203643 80 123 3.0 7.0 0.00 0.00 0.00 69 1018.5
20260906203143 80 175 3.0 7.0 0.00 0.00 0.00 69 1018.5
20260906202640 79 149 2.0 7.0 0.00 0.00 0.00 70 1018.6
20260906202617 79 145 2.0 6.0 0.00 0.00 0.00 69 1018.6
20260906201636 79 165 2.0 6.0 0.00 0.00 0.00 69 1018.6
20260906201138 78 179 1.0 6.0 0.00 0.00 0.00 71 1018.8
20260906200637 79 151 1.0 7.0 0.00 0.00 0.00 71 1018.9
20260906200133 78 194 1.0 7.0 0.00 0.00 0.00 71 1019.0
20260906195633 78 177 2.0 6.0 0.00 0.00 0.00 69 1019.1
20260906195133 78 176 3.0 10.0 0.00 0.00 0.00 68 1019.0
20260906194857 79 167 3.0 10.0 0.00 0.00 0.00 70 1019.0
20260906194358 78 150 1.0 10.0 0.00 0.00 0.00 71 1019.1
20260906193633 78 155 2.0 8.0 0.00 0.00 0.00 70 1019.2
20260906193355 78 165 4.0 12.0 0.00 0.00 0.00 69 1019.2
20260906192633 78 131 4.0 12.0 0.00 0.00 0.00 68 1019.1
20260906192132 78 154 3.0 10.0 0.00 0.00 0.00 71 1019.1
20260906191633 78 105 3.0 9.0 0.00 0.00 0.00 70 1019.0
20260906191132 78 80 2.0 9.0 0.00 0.00 0.00 70 1019.1
20260906190632 78 169 3.0 9.0 0.00 0.00 0.00 72 1019.0
20260906190133 78 164 3.0 9.0 0.00 0.00 0.00 69 1019.1
20260906185633 78 126 2.0 6.0 0.00 0.00 0.00 71 1019.1
20260906185354 78 88 3.0 10.0 0.00 0.00 0.00 71 1019.1
20260906184633 78 107 3.0 10.0 0.00 0.00 0.00 70 1019.2
20260906184132 78 156 4.0 9.0 0.00 0.00 0.00 71 1019.3
20260906183633 78 156 3.0 9.0 0.00 0.00 0.00 71 1019.3
20260906183133 78 170 3.0 11.0 0.00 0.00 0.00 70 1019.4
20260906182632 78 159 5.0 11.0 0.00 0.00 0.00 70 1019.7
20260906182622 78 171 3.0 9.0 0.00 0.00 0.00 69 1019.7
20260906181630 78 136 3.0 11.0 0.00 0.00 0.00 69 1019.8
20260906181128 78 168 4.0 11.0 0.00 0.00 0.00 70 1019.8
20260906180626 78 169 4.0 10.0 0.00 0.00 0.00 72 1019.8
20260906180126 78 84 4.0 9.0 0.00 0.00 0.00 69 1019.9
20260906175626 78 119 4.0 10.0 0.00 0.00 0.00 69 1019.9
20260906175126 79 169 3.0 10.0 0.00 0.00 0.00 69 1019.8
20260906174628 78 166 4.0 9.0 0.00 0.00 0.00 69 1019.8
20260906174127 78 124 5.0 11.0 0.00 0.00 0.00 68 1019.9
20260906173626 77 177 4.0 11.0 0.00 0.00 0.00 70 1019.8
20260906173348 77 69 2.0 9.0 0.00 0.00 0.00 70 1019.7
20260906172623 77 119 3.0 12.0 0.00 0.00 0.00 70 1019.8
20260906172342 76 171 3.0 12.0 0.00 0.00 0.00 72 1019.9
20260906171616 77 88 3.0 10.0 0.00 0.00 0.00 71 1020.1
20260906171109 77 109 3.0 10.0 0.00 0.00 0.00 70 1020.2
20260906170604 76 171 4.0 12.0 0.00 0.00 0.00 72 1020.2
20260906170058 75 88 5.0 12.0 0.00 0.00 0.00 72 1020.0
20260906165552 75 84 4.0 9.0 0.00 0.00 0.00 73 1020.0
20260906165045 75 111 3.0 9.0 0.00 0.00 0.00 73 1020.1
20260906164540 75 83 3.0 9.0 0.00 0.00 0.00 75 1020.1
20260906164035 74 101 3.0 8.0 0.00 0.00 0.00 75 1020.1
20260906163527 74 86 3.0 8.0 0.00 0.00 0.00 75 1020.2
20260906163022 74 111 2.0 8.0 0.00 0.00 0.00 77 1020.2
20260906162515 74 120 1.0 7.0 0.00 0.00 0.00 77 1020.3
20260906162231 74 161 2.0 8.0 0.00 0.00 0.00 76 1020.3
20260906161505 73 170 4.0 12.0 0.00 0.00 0.00 76 1020.1
20260906160957 73 98 4.0 12.0 0.00 0.00 0.00 76 1020.1
20260906160452 73 109 4.0 9.0 0.00 0.00 0.00 77 1020.2
20260906155945 73 76 3.0 9.0 0.00 0.00 0.00 77 1020.2
20260906155441 73 69 4.0 9.0 0.00 0.00 0.00 77 1020.2
20260906154934 72 78 4.0 9.0 0.00 0.00 0.00 79 1020.2
20260906154428 72 71 3.0 9.0 0.00 0.00 0.00 78 1020.3
20260906153924 72 115 3.0 9.0 0.00 0.00 0.00 79 1020.3
20260906153416 71 51 3.0 9.0 0.00 0.00 0.00 80 1020.4
20260906152911 71 155 3.0 8.0 0.00 0.00 0.00 80 1020.5
20260906152404 70 89 3.0 9.0 0.00 0.00 0.00 82 1020.5
20260906151858 70 126 4.0 9.0 0.00 0.00 0.00 83 1020.6
20260906151351 69 111 4.0 9.0 0.00 0.00 0.00 83 1020.6
20260906150846 69 89 3.0 9.0 0.00 0.00 0.00 84 1020.6
20260906150340 69 113 3.0 8.0 0.00 0.00 0.00 86 1020.5
20260906145834 68 140 4.0 9.0 0.00 0.00 0.00 87 1020.4
20260906145547 68 92 3.0 9.0 0.00 0.00 0.00 88 1020.3
20260906144822 68 114 3.0 7.0 0.00 0.00 0.00 89 1020.1
20260906144315 67 116 4.0 9.0 0.00 0.00 0.00 90 1020.2
20260906144032 67 101 4.0 9.0 0.00 0.00 0.00 90 1020.3
20260906143304 67 69 2.0 8.0 0.00 0.00 0.00 91 1020.1
20260906142758 67 80 3.0 8.0 0.00 0.00 0.00 91 1020.2
20260906142519 66 94 3.0 8.0 0.00 0.00 0.00 91 1020.2
20260906141745 66 72 3.0 7.0 0.00 0.00 0.00 91 1020.1
20260906141241 66 94 2.0 6.0 0.00 0.00 0.00 91 1020.1
20260906140734 66 82 2.0 4.0 0.00 0.00 0.00 91 1020.1
20260906140227 66 111 2.0 7.0 0.00 0.00 0.00 91 1020.1
20260906135722 66 111 2.0 7.0 0.00 0.00 0.00 91 1020.0
20260906135217 66 117 2.0 6.0 0.00 0.00 0.00 91 1020.0
20260906134709 66 103 2.0 6.0 0.00 0.00 0.00 91 1019.9
20260906134205 66 97 2.0 4.0 0.00 0.00 0.00 91 1020.0
20260906133923 66 99 3.0 7.0 0.00 0.00 0.00 91 1020.0
20260906133412 66 84 3.0 7.0 0.00 0.00 0.00 91 1020.1
20260906132646 66 114 2.0 7.0 0.00 0.00 0.00 91 1020.2
20260906132139 66 91 0.0 3.0 0.00 0.00 0.00 91 1020.4
20260906131634 66 141 1.0 3.0 0.00 0.00 0.00 91 1020.3
20260906131128 66 92 1.0 4.0 0.00 0.00 0.00 91 1020.2
20260906130622 66 89 2.0 4.0 0.00 0.00 0.00 91 1020.3
20260906130115 66 89 2.0 6.0 0.00 0.00 0.00 91 1020.1
20260906125610 66 144 1.0 6.0 0.00 0.00 0.00 91 1020.0
20260906125103 66 95 2.0 4.0 0.00 0.00 0.00 91 1020.0
20260906124558 66 94 2.0 4.0 0.00 0.00 0.00 91 1019.9
20260906124052 66 105 1.0 3.0 0.00 0.00 0.00 91 1019.8
20260906123545 66 101 1.0 5.0 0.00 0.00 0.00 91 1019.9
20260906123040 66 93 0.0 5.0 0.00 0.00 0.00 91 1019.9
20260906122533 66 92 0.0 0.0 0.00 0.00 0.00 91 1020.0
20260906122247 66 87 0.0 0.0 0.00 0.00 0.00 91 1019.9
20260906121521 66 87 0.0 0.0 0.00 0.00 0.00 91 1019.7
20260906121016 66 87 0.0 0.0 0.00 0.00 0.00 91 1019.7
20260906120509 66 87 0.0 0.0 0.00 0.00 0.00 91 1019.7
20260906120005 66 87 0.0 0.0 0.00 0.00 0.00 91 1019.5
20260906115457 66 87 0.0 0.0 0.00 0.00 0.00 90 1019.4
20260906114951 66 87 0.0 0.0 0.00 0.00 0.00 90 1019.2
20260906114445 66 87 0.0 0.0 0.00 0.00 0.00 90 1019.1
20260906113940 66 87 0.0 0.0 0.00 0.00 0.00 90 1019.0
20260906113440 66 87 0.0 0.0 0.00 0.00 0.00 90 1018.8
20260906112939 66 87 0.0 1.0 0.00 0.00 0.00 90 1018.7
20260906112439 66 87 1.0 2.0 0.00 0.00 0.00 90 1018.6
20260906111937 66 87 1.0 2.0 0.00 0.00 0.00 90 1018.6
20260906111437 66 87 1.0 4.0 0.00 0.00 0.00 90 1018.6
20260906110937 66 87 0.0 4.0 0.00 0.00 0.00 90 1018.4
20260906110437 66 149 0.0 0.0 0.00 0.00 0.00 90 1018.5
20260906105938 66 149 0.0 0.0 0.00 0.00 0.00 90 1018.5
20260906105439 65 149 0.0 0.0 0.00 0.00 0.00 90 1018.5
20260906104939 65 149 0.0 0.0 0.00 0.00 0.00 90 1018.5
20260906104433 65 149 0.0 0.0 0.00 0.00 0.00 89 1018.6
20260906103933 65 149 0.0 0.0 0.00 0.00 0.00 89 1018.8
20260906103433 65 149 0.0 0.0 0.00 0.00 0.00 89 1018.8
20260906102933 65 149 0.0 0.0 0.00 0.00 0.00 89 1018.6
20260906102433 66 149 0.0 0.0 0.00 0.00 0.00 89 1018.7
20260906101933 66 149 0.0 0.0 0.00 0.00 0.00 89 1018.6
20260906101434 66 149 0.0 0.0 0.00 0.00 0.00 89 1018.6
20260906100933 66 149 0.0 0.0 0.00 0.00 0.00 89 1018.4
20260906100433 66 149 0.0 0.0 0.00 0.00 0.00 89 1018.3
20260906095931 66 149 0.0 0.0 0.00 0.00 0.00 89 1018.2
20260906095429 66 149 0.0 0.0 0.00 0.00 0.00 89 1018.0
20260906094929 67 149 0.0 0.0 0.00 0.00 0.00 89 1017.8
20260906094430 67 149 0.0 0.0 0.00 0.00 0.00 89 1017.8
20260906094149 67 150 1.0 3.0 0.00 0.00 0.00 90 1017.8
20260906093648 67 149 1.0 3.0 0.00 0.00 0.00 90 1017.8
20260906092927 67 149 0.0 3.0 0.00 0.00 0.00 90 1017.8
20260906092649 67 96 0.0 2.0 0.00 0.00 0.00 90 1017.9
20260906091925 67 96 1.0 6.0 0.00 0.00 0.00 90 1017.7
20260906091423 67 96 2.0 6.0 0.00 0.00 0.00 90 1017.6
20260906090923 67 59 3.0 6.0 0.00 0.00 0.00 90 1017.8
20260906090646 67 101 3.0 8.0 0.00 0.00 0.00 90 1017.9
20260906085921 67 90 3.0 8.0 0.00 0.00 0.00 90 1017.7
20260906085421 67 94 3.0 7.0 0.00 0.00 0.00 90 1017.7
20260906084915 67 90 3.0 7.0 0.00 0.00 0.00 91 1017.8
20260906084409 67 90 3.0 7.0 0.00 0.00 0.00 91 1017.8
20260906083903 67 69 3.0 7.0 0.00 0.00 0.00 91 1017.9
20260906083356 67 96 2.0 9.0 0.00 0.00 0.00 91 1017.9
20260906082850 67 92 3.0 9.0 0.00 0.00 0.00 91 1017.9
20260906082601 67 82 4.0 8.0 0.00 0.00 0.00 91 1017.9
20260906081839 67 84 3.0 7.0 0.00 0.00 0.00 91 1017.9
20260906081332 67 76 3.0 8.0 0.00 0.00 0.00 91 1017.8
20260906080828 66 97 3.0 6.0 0.00 0.00 0.00 90 1018.0
20260906080320 66 91 2.0 4.0 0.00 0.00 0.00 90 1018.2
20260906075815 66 94 2.0 3.0 0.00 0.00 0.00 90 1018.1
20260906075308 66 94 2.0 3.0 0.00 0.00 0.00 90 1018.1
20260906074803 67 94 2.0 3.0 0.00 0.00 0.00 90 1017.9
20260906074257 67 95 2.0 4.0 0.00 0.00 0.00 90 1017.9
20260906073750 67 95 2.0 4.0 0.00 0.00 0.00 90 1018.0
20260906073245 67 96 1.0 4.0 0.00 0.00 0.00 90 1018.1
20260906072738 67 94 2.0 4.0 0.00 0.00 0.00 90 1018.1
20260906072232 67 94 2.0 4.0 0.00 0.00 0.00 90 1018.1
20260906071726 67 92 2.0 4.0 0.00 0.00 0.00 90 1018.2
20260906071221 67 92 2.0 4.0 0.00 0.00 0.00 90 1018.2
20260906070715 67 92 1.0 4.0 0.00 0.00 0.00 90 1018.3
20260906070209 67 94 1.0 2.0 0.00 0.00 0.00 90 1018.4
20260906065702 67 94 1.0 2.0 0.00 0.00 0.00 90 1018.3
20260906065156 67 94 1.0 6.0 0.00 0.00 0.00 89 1018.5
20260906064651 67 94 1.0 6.0 0.00 0.00 0.00 89 1018.4
20260906064144 67 87 0.0 3.0 0.00 0.00 0.00 89 1018.4
20260906064126 67 84 0.0 0.0 0.00 0.00 0.00 89 1018.4
20260906063134 67 84 0.0 0.0 0.00 0.00 0.00 89 1018.4
20260906062627 67 84 0.0 0.0 0.00 0.00 0.00 88 1018.5
20260906062121 67 84 0.0 0.0 0.00 0.00 0.00 88 1018.5
20260906061837 67 84 0.0 0.0 0.00 0.00 0.00 88 1018.5
20260906061334 67 84 0.0 0.0 0.00 0.00 0.00 88 1018.4
20260906060602 67 84 0.0 0.0 0.00 0.00 0.00 87 1018.4
20260906060057 67 84 0.0 0.0 0.00 0.00 0.00 88 1018.4
20260906055550 67 84 0.0 0.0 0.00 0.00 0.00 87 1018.3
20260906055045 68 84 0.0 0.0 0.00 0.00 0.00 87 1018.4
20260906054539 68 84 0.0 0.0 0.00 0.00 0.00 87 1018.5
20260906054255 68 84 0.0 0.0 0.00 0.00 0.00 87 1018.3
20260906053527 68 84 0.0 0.0 0.00 0.00 0.00 87 1018.5
20260906053244 68 84 0.0 0.0 0.00 0.00 0.00 87 1018.4
20260906052514 68 84 0.0 0.0 0.00 0.00 0.00 88 1018.4
20260906052009 68 84 0.0 0.0 0.00 0.00 0.00 87 1018.4
20260906051503 68 84 0.0 0.0 0.00 0.00 0.00 87 1018.3
20260906051224 68 84 0.0 0.0 0.00 0.00 0.00 87 1018.2
20260906050451 69 84 0.0 0.0 0.00 0.00 0.00 87 1018.0
20260906045944 69 84 0.0 0.0 0.00 0.00 0.00 87 1018.1
20260906045440 69 84 0.0 0.0 0.00 0.00 0.00 87 1018.1
20260906044933 69 84 0.0 0.0 0.00 0.00 0.00 87 1018.1
20260906044426 69 84 0.0 0.0 0.00 0.00 0.00 86 1018.2
20260906043921 69 84 0.0 0.0 0.00 0.00 0.00 86 1018.1
20260906043416 69 84 0.0 0.0 0.00 0.00 0.00 86 1018.1
20260906042909 69 84 0.0 0.0 0.00 0.00 0.00 86 1018.2
20260906042628 69 84 0.0 0.0 0.00 0.00 0.00 86 1018.2
20260906041856 69 84 0.0 0.0 0.00 0.00 0.00 86 1018.2
20260906041351 69 84 0.0 0.0 0.00 0.00 0.00 86 1018.2
20260906041107 70 84 0.0 0.0 0.00 0.00 0.00 86 1018.4
20260906040340 70 84 0.0 0.0 0.00 0.00 0.00 86 1018.4
20260906035832 70 84 0.0 0.0 0.00 0.00 0.00 86 1018.3
20260906035328 70 84 0.0 0.0 0.00 0.00 0.00 86 1018.4
20260906035049 70 84 0.0 0.0 0.00 0.00 0.00 86 1018.1
20260906034315 70 84 0.0 0.0 0.00 0.00 0.00 86 1018.2
20260906033809 70 84 0.0 2.0 0.00 0.00 0.00 86 1018.1
20260906033302 70 84 1.0 3.0 0.00 0.00 0.00 86 1018.0
20260906032757 70 84 2.0 3.0 0.00 0.00 0.00 85 1018.0
20260906032250 71 84 2.0 3.0 0.00 0.00 0.00 85 1017.9
20260906031746 71 84 1.0 3.0 0.00 0.00 0.00 85 1017.8
20260906031459 71 84 2.0 3.0 0.00 0.00 0.00 85 1017.7
20260906030953 71 84 1.0 3.0 0.00 0.00 0.00 84 1017.6
20260906030228 71 84 1.0 2.0 0.00 0.00 0.00 84 1017.6
20260906025721 71 84 0.0 2.0 0.00 0.00 0.00 84 1017.5
20260906025214 71 84 0.0 0.0 0.00 0.00 0.00 84 1017.4
20260906024709 71 84 0.0 0.0 0.00 0.00 0.00 84 1017.5
20260906024203 72 84 1.0 3.0 0.00 0.00 0.00 84 1017.2
20260906023657 71 84 2.0 4.0 0.00 0.00 0.00 84 1017.2
20260906023150 71 84 2.0 6.0 0.00 0.00 0.00 84 1017.0
20260906022909 71 84 3.0 6.0 0.00 0.00 0.00 84 1017.0
20260906022140 71 83 2.0 6.0 0.00 0.00 0.00 84 1016.9
20260906021633 71 78 2.0 6.0 0.00 0.00 0.00 85 1016.9
20260906021127 71 89 1.0 4.0 0.00 0.00 0.00 84 1016.8
20260906020620 72 94 0.0 0.0 0.00 0.00 0.00 84 1016.8
20260906020314 72 94 0.0 0.0 0.00 0.00 0.00 84 1016.7
20260906020308 72 94 0.0 0.0 0.00 0.00 0.00 84 1016.8
20260906015104 72 94 0.0 0.0 0.00 0.00 0.00 83 1016.6
20260906014556 72 97 0.0 0.0 0.00 0.00 0.00 83 1016.4
20260906014051 73 97 0.0 0.0 0.00 0.00 0.00 83 1016.4
20260906013802 73 97 0.0 0.0 0.00 0.00 0.00 82 1016.3
20260906013039 73 97 0.0 0.0 0.00 0.00 0.00 82 1016.3
20260906012532 73 97 0.0 0.0 0.00 0.00 0.00 82 1016.1
20260906012027 73 97 0.0 0.0 0.00 0.00 0.00 82 1016.0
20260906011521 74 97 0.0 0.0 0.00 0.00 0.00 82 1015.9
20260906011014 74 97 0.0 0.0 0.00 0.00 0.00 82 1015.9
20260906010509 74 98 0.0 0.0 0.00 0.00 0.00 82 1015.9
20260906010006 74 98 0.0 0.0 0.00 0.00 0.00 82 1015.6
20260906005456 75 98 0.0 0.0 0.00 0.00 0.00 82 1015.5
20260906004951 75 98 0.0 0.0 0.00 0.00 0.00 82 1015.4
20260906004707 75 98 0.0 0.0 0.00 0.00 0.00 81 1015.3
20260906003940 75 98 0.0 0.0 0.00 0.00 0.00 81 1015.4
20260906003433 76 98 0.0 0.0 0.00 0.00 0.00 81 1015.3
20260906002926 76 98 0.0 0.0 0.00 0.00 0.00 80 1015.5
20260906002643 76 98 1.0 3.0 0.00 0.00 0.00 80 1015.4
20260906001916 76 98 2.0 4.0 0.00 0.00 0.00 80 1015.3
20260906001630 76 94 3.0 7.0 0.00 0.00 0.00 80 1015.2
20260906000902 76 92 3.0 7.0 0.00 0.00 0.00 79 1015.2
20260906000357 76 90 3.0 8.0 0.00 0.00 0.00 79 1015.3
20260905235850 76 81 4.0 9.0 0.00 0.00 0.00 79 1015.3
20260905235345 76 84 4.0 10.0 0.00 0.00 0.00 79 1015.3
20260905235056 76 71 4.0 10.0 0.00 0.00 0.00 79 1015.2
20260905234332 77 100 5.0 9.0 0.00 0.00 0.00 78 1015.2
20260905233827 77 84 5.0 11.0 0.00 0.00 0.00 78 1015.2
20260905233321 77 94 5.0 12.0 0.00 0.00 0.00 77 1015.2
20260905232814 77 94 5.0 13.0 0.00 0.00 0.00 77 1015.3
20260905232309 77 97 4.0 11.0 0.00 0.00 0.00 77 1015.4
20260905231802 77 86 3.0 8.0 0.00 0.00 0.00 77 1015.6
20260905231524 78 123 2.0 5.0 0.00 0.00 0.00 76 1015.5
20260905230750 78 51 2.0 8.0 0.00 0.00 0.00 76 1015.6
20260905230250 78 112 3.0 9.0 0.00 0.00 0.00 76 1015.6
20260905225750 78 101 2.0 9.0 0.00 0.00 0.00 76 1015.7
20260905225251 78 108 0.0 3.0 0.00 0.00 0.00 76 1015.8
20260905224751 78 105 1.0 4.0 0.00 0.00 0.00 76 1015.8
20260905224251 78 110 3.0 9.0 0.00 0.00 0.00 76 1015.8
20260905223750 78 84 4.0 9.0 0.00 0.00 0.00 76 1015.7
20260905223510 78 125 3.0 13.0 0.00 0.00 0.00 76 1015.7
20260905222749 78 99 3.0 13.0 0.00 0.00 0.00 76 1015.6
20260905222249 78 70 3.0 10.0 0.00 0.00 0.00 77 1015.6
20260905221749 78 130 4.0 10.0 0.00 0.00 0.00 76 1015.6
20260905221249 79 25 4.0 10.0 0.00 0.00 0.00 76 1015.7
20260905220749 79 83 4.0 10.0 0.00 0.00 0.00 76 1015.8
20260905220248 79 73 4.0 10.0 0.00 0.00 0.00 75 1015.7
20260905215745 79 87 3.0 8.0 0.00 0.00 0.00 76 1015.8
20260905215246 79 120 3.0 8.0 0.00 0.00 0.00 75 1015.8
20260905214745 80 78 2.0 8.0 0.00 0.00 0.00 75 1015.9
20260905214245 80 92 1.0 8.0 0.00 0.00 0.00 74 1016.0
20260905213744 80 76 2.0 8.0 0.00 0.00 0.00 75 1016.0
20260905213244 80 66 2.0 8.0 0.00 0.00 0.00 73 1016.0
20260905212745 80 75 3.0 8.0 0.00 0.00 0.00 73 1016.1